sat.trackr.live / text

‹ back to catalog

KINEIS-2E

NORAD 62931 · 2025-028D

PAYLOAD ACTIVE UNKNOWN

§ Identity

Operator
Country
FR
Launch date
2025-02-08
Launch site
RLLB
Launch vehicle
Mass (kg)
RCS (m²)

External: N2YO · Heavens-Above · Gunter

§ Orbital elements

Epoch: 2026-09-22T21:44:51.880128Z

Period
97.48 min
Inclination
97.8861°
Eccentricity
0.0001252
Mean motion
14.77222499 rev/d
Perigee alt
637.2 km
Apogee alt
639.0 km
Semi-major
7,016.2 km
B*
1.0664e-4
RAAN
315.4244°
Arg perigee
119.5312°
Mean anomaly
240.6023°
Rev number
8,720

§ Raw data

KINEIS-2E1 62931U 25028D   26265.90615602  .00000705  00000+0  10664-3 0  99992 62931  97.8861 315.4244 0001252 119.5312 240.6023 14.77222499 87208

JSON: /api/v1/satellites/62931 · /tle

For live sub-satellite position, see the globe view (requires WebGL).

§ Visibility from observer

Set your observer location to see the next 7 days of passes ≥ 10°. The values pass through the URL so the page stays shareable.

No JS? Fill the form by hand. The geolocation button needs JavaScript.

§ Radio — SatNOGS DB

ModeDescriptionDownlinkUplink
FM S-band telemetry 2.266 GHz
UNKNOWN Telemetry 400.638 MHz
FM Telemetry 401.638 MHz

3 transmitters · refreshed weekly from db.satnogs.org